Weather History for Monterey, CA

Change the Weather History Date:

Wednesday, July 3, 2013

  Actual Average Record
Temperature  
Mean Temperature 67 °F 60 °F  
Max Temperature 77 °F 68 °F 77 °F (2013)
Min Temperature 56 °F 53 °F 50 °F (2003)
Degree Days  
Heating Degree Days 0    
Month to date heating degree days 2  
Since 1 June heating degree days 130  
Since 1 July heating degree days 2  
Cooling Degree Days 2    
Month to date cooling degree days 2  
Year to date cooling degree days 18  
Since 1 June cooling degree days 11  
Growing Degree Days 15 (Base 50)    
Moisture  
Dew Point 56 °F    
Average Humidity 77    
Maximum Humidity 100    
Minimum Humidity 54    
Precipitation  
Precipitation 0.00 in - 0.00 in (2014)
Month to date precipitation 0.00  
Year to date precipitation 3.15  
Since 1 July precipitation 0.00  
Sea Level Pressure  
Sea Level Pressure 29.90 in    
Wind  
Wind Speed 3 mph (North)    
Max Wind Speed 10 mph    
Max Gust Speed 14 mph    
Visibility 7 miles    
Events Fog    
T = Trace of Precipitation, MM = Missing Value Source: NWS Daily Summary

Daily Weather History Graph

Daily Weather History Graph

Search for Another Location

Airport:

Trip Planner

Search our weather history database for the weather conditions in past years. The results will help you decide how hot, cold, wet, or windy it might be!

Date:

Astronomy

Jul. 03, 2013 Rise Set
Actual Time 5:53 AM PDT 8:29 PM PDT
Civil Twilight 5:23 AM PDT 8:59 PM PDT
Nautical Twilight 4:45 AM PDT 9:37 PM PDT
Astronomical Twilight 4:03 AM PDT 10:19 PM PDT
Moon 2:31 AM PDT (7/3) 4:47 PM PDT (7/3)
Length of Visible Light 15h 36m
Length of Day
14h 35m
Waning Crescent, 17% of the Moon is Illuminated
Jul 3
Waning Crescent
Jul 8
New
Jul 15
First Quarter
Jul 22
Full
Jul 29
Last Quarter

Hourly Weather History & Observations

Time (PDT) Temp. Dew Point Humidity Pressure Visibility Wind Dir Wind Speed Gust Speed Precip Events Conditions
12:54 AM 59.0 °F 55.9 °F 90% 29.99 in 10.0 mi NW 4.6 mph - N/A   Overcast
1:02 AM 59.0 °F 55.4 °F 88% 29.95 in 10.0 mi NW 3.5 mph - N/A   Overcast
1:54 AM 57.9 °F 55.9 °F 93% 29.97 in 8.0 mi Calm Calm - N/A   Overcast
2:54 AM 57.9 °F 55.9 °F 93% 29.95 in 9.0 mi Calm Calm - N/A   Overcast
3:54 AM 57.9 °F 55.9 °F 93% 29.94 in 8.0 mi Calm Calm - N/A   Overcast
4:28 AM 57.2 °F 55.4 °F 94% 29.91 in 1.5 mi West 3.5 mph - N/A   Overcast
4:37 AM 57.2 °F 55.4 °F 94% 29.91 in 0.8 mi West 3.5 mph - N/A   Overcast
4:54 AM 57.0 °F 55.9 °F 96% 29.94 in 0.5 mi West 3.5 mph - N/A Fog Fog
5:54 AM 57.0 °F 55.9 °F 96% 29.96 in 1.2 mi Calm Calm - N/A   Overcast
6:09 AM 57.2 °F 55.4 °F 94% 29.91 in 1.5 mi Calm Calm - N/A   Overcast
6:23 AM 55.4 °F 55.4 °F 100% 29.91 in 0.2 mi NE 3.5 mph - N/A Fog Fog
6:30 AM 55.4 °F 55.4 °F 100% 29.91 in 0.2 mi NE 3.5 mph - N/A Fog Fog
6:52 AM 55.4 °F 55.4 °F 100% 29.91 in 1.2 mi ENE 4.6 mph - N/A   Overcast
6:53 AM 55.9 °F 55.0 °F 97% 29.95 in 1.8 mi ENE 3.5 mph - N/A   Overcast
6:55 AM 55.4 °F 55.4 °F 100% 29.91 in 4.0 mi East 4.6 mph - N/A   Overcast
7:26 AM 57.2 °F 55.4 °F 94% 29.90 in 10.0 mi East 6.9 mph - N/A   Scattered Clouds
7:54 AM 60.1 °F 55.0 °F 83% 29.94 in 10.0 mi Calm Calm - N/A   Clear
8:54 AM 64.9 °F 57.0 °F 75% 29.93 in 10.0 mi West 3.5 mph - N/A   Clear
9:54 AM 66.9 °F 57.0 °F 70% 29.92 in 10.0 mi North 3.5 mph - N/A   Clear
10:54 AM 71.1 °F 55.9 °F 59% 29.92 in 10.0 mi SW 10.4 mph - N/A   Clear
11:54 AM 70.0 °F 55.9 °F 61% 29.93 in 10.0 mi NNW 5.8 mph - N/A   Clear
12:54 PM 71.1 °F 55.9 °F 59% 29.92 in 10.0 mi WSW 8.1 mph - N/A   Clear
1:54 PM 71.1 °F 55.9 °F 59% 29.92 in 10.0 mi NNW 5.8 mph - N/A   Clear
2:54 PM 70.0 °F 57.0 °F 63% 29.89 in 10.0 mi NNW 4.6 mph - N/A   Clear
3:54 PM 75.0 °F 57.9 °F 55% 29.88 in 10.0 mi Calm Calm - N/A   Clear
4:54 PM 75.0 °F 57.0 °F 53% 29.86 in 10.0 mi NNW 6.9 mph - N/A   Clear
5:54 PM 66.9 °F 55.9 °F 68% 29.86 in 10.0 mi NNE 6.9 mph - N/A   Clear
6:54 PM 64.9 °F 55.9 °F 73% 29.87 in 10.0 mi NNE 6.9 mph - N/A   Partly Cloudy
7:54 PM 59.0 °F 55.9 °F 90% 29.88 in 7.0 mi North 6.9 mph - N/A   Mostly Cloudy
8:09 PM 59.0 °F 55.4 °F 88% 29.84 in 1.8 mi North 5.8 mph - N/A   Overcast
8:31 PM 59.0 °F 55.4 °F 88% 29.83 in 3.0 mi NNE 3.5 mph - N/A   Overcast
8:42 PM 57.2 °F 55.4 °F 94% 29.83 in 2.5 mi North 3.5 mph - N/A   Overcast
8:54 PM 57.9 °F 55.9 °F 93% 29.86 in 3.0 mi Calm Calm - N/A   Overcast
9:54 PM 57.9 °F 55.9 °F 93% 29.87 in 9.0 mi Calm Calm - N/A   Overcast
10:54 PM 59.0 °F 55.9 °F 90% 29.87 in 10.0 mi Calm Calm - N/A   Mostly Cloudy
11:12 PM 59.0 °F 55.4 °F 88% 29.83 in 10.0 mi Calm Calm - N/A   Partly Cloudy
11:54 PM 60.1 °F 55.0 °F 83% 29.85 in 10.0 mi East 3.5 mph - N/A   Clear